Location: Granite Hills
(32.8031°N, 116.9047°W)
Time: 12:26:50
(UTC+00:00)

Daily predictions for brighter satellites

Satellite Brightness Start Highest point End
(mag) Time Altitude Azimuth Time Altitude Azimuth Time Altitude Azimuth
APEX 4.0 12:00:00 10° NNW 12:04:42 66° WSW 12:10:32 10° S
Cosmos 2227 Rocket 3.0 12:00:41 10° NW 12:05:27 29° WSW 12:10:13 10° SSW
Meteor 2-10 Rocket 3.7 12:01:25 10° N 12:07:11 85° W 12:12:42 10° S
Cosmos 676 Rocket 4.2 12:03:17 10° NNW 12:08:34 81° ENE 12:13:51 10° SSE
Cosmos 1484 Rocket 3.0 12:04:55 10° NNE 12:08:53 77° E 12:12:45 10° S
Cosmos 2297 Rocket 3.4 12:05:06 10° NW 12:09:02 20° W 12:12:58 10° SW
Cosmos 1300 4.0 12:09:47 10° NW 12:12:42 21° W 12:15:37 10° SW
SL-24 R/B 3.6 12:09:05 10° S 12:12:43 81° W 12:16:29 10° NNW
Cosmos 407 Rocket 4.1 12:09:27 10° NW 12:14:17 35° W 12:19:05 10° SSW
CZ-2C R/B 3.9 12:11:23 10° NNW 12:14:49 28° WNW 12:18:16 10° SW
Cosmos 2082 3.9 12:11:35 10° NNW 12:17:03 49° WSW 12:22:30 10° S
SL-16 R/B 2.4 12:13:40 10° SSW 12:19:18 78° ESE 12:24:59 10° NNE
CZ-2C R/B 3.4 12:16:19 10° N 12:20:46 32° WNW 12:25:18 10° SW
Okean 1-7 Rocket 3.7 12:17:53 10° S 12:22:23 90° WSW 12:26:58 10° N
Atlas Centaur 2 3.8 12:19:53 10° SSW 12:24:35 22° SSE 12:28:34 10° ESE
Cosmos 1452 Rocket 3.8 12:21:34 10° SSW 12:26:42 53° WNW 12:31:51 10° N
Lacrosse 4 Rocket 3.7 12:25:42 10° W 12:27:37 12° NW 12:29:32 10° NNW
Aureole 2 Rocket 3.0 12:25:52 10° N 12:28:29 47° ENE 12:31:06 10° SSE
CZ-4C R/B 3.7 12:26:04 10° SSE 12:29:16 55° ENE 12:32:26 10° N
NOSS 3-2 (A) 3.3 12:23:59 10° SSW 12:29:20 84° ESE 12:35:20 10° NNE
Tsikada Rocket 4.1 12:23:36 10° S 12:30:00 81° W 12:36:26 10° N
